[[{"header":{"parameterUnit":"m.s-1","parameterCategory":1,"la1":30.2991,"la2":30.254,"lo1":-89.0895,"lo2":-89.0444,"dy":0.0017,"dx":0.0017,"nx":28,"ny":28,"refTime":"2024-02-22T03:00:00:Z","depth":0,"parameterNumber":2,"parameterNumberName":"U-component_of_WINDS"},"data":[0,0,0,0,0,0,0,0,0,0,0,0,0,0,0,0,0,0,0,0,0,0,0,0,0,0,0,0,0,0,0,0,0,0,0,0,0,0,0,0,0,0,0,0,0,0,0,0,0,0,0,0,0,0,0,0,0,0,-1.3488,-1.3488,0,-1.3516,-1.3516,-1.3516,-1.3503,-1.3503,-1.3502,-1.3501,-1.3532,-1.3533,-1.3535,0,0,0,0,0,0,0,0,0,0,0,0,0,-1.3424,-1.3425,-1.3487,-1.3488,-1.3488,-1.3516,-1.3516,-1.3516,-1.3503,-1.3503,-1.3502,-1.3501,-1.3531,-1.3533,-1.3535,0,0,0,0,0,0,0,0,0,0,0,0,0,-1.3452,-1.3426,-1.3487,-1.3485,-1.3485,-1.3516,-1.3516,-1.3517,-1.3504,-1.3503,-1.3501,-1.3501,-1.3531,-1.3533,-1.3535,-1.357,0,0,-1.3542,-1.3543,0,0,0,0,0,0,0,0,-1.345,-1.3454,-1.3485,-1.3485,-1.3485,-1.3505,-1.3505,-1.3535,-1.3504,-1.3497,-1.3501,-1.35,-1.3524,-1.3527,-1.3534,-1.3572,-1.3573,-1.3542,-1.3543,-1.3544,-1.3545,0,0,0,0,0,0,0,-1.3448,-1.3453,-1.3499,-1.3485,-1.3486,-1.3483,-1.3486,-1.351,-1.3516,-1.3497,-1.3496,-1.35,-1.3524,-1.3532,-1.3535,-1.3573,-1.3542,-1.3544,-1.3545,-1.3546,-1.364,-1.3641,0,0,0,0,0,0,-1.3446,-1.3451,-1.3498,-1.35,-1.3465,-1.3485,-1.3488,-1.35,-1.3516,-1.3517,-1.3501,-1.3499,-1.3529,-1.3532,-1.3536,-1.3577,-1.3544,-1.3546,-1.3548,-1.3639,-1.3641,-1.3642,0,0,0,0,0,0,-1.3445,-1.345,-1.3497,-1.3475,-1.3481,-1.3487,-1.35,-1.3501,-1.3509,-1.3518,-1.3519,-1.3508,-1.3528,-1.3533,-1.3561,-1.3578,-1.3547,-1.3549,-1.3638,-1.364,-1.3641,-1.3661,0,0,0,0,0,0,-1.3443,-1.345,-1.3463,-1.3476,-1.3482,-1.3521,-1.3501,-1.3502,-1.3513,-1.3511,-1.3525,-1.3527,-1.3528,-1.3558,-1.3564,-1.3581,-1.3551,-1.3636,-1.3639,-1.3641,-1.3659,-1.3663,-1.3667,0,0,0,0,0,-1.3441,-1.3468,-1.3464,-1.347,-1.3498,-1.3522,-1.3526,-1.3526,-1.3514,-1.3528,-1.3533,-1.3526,-1.3576,-1.3561,-1.3567,-1.3585,-1.3635,-1.3638,-1.3641,-1.3657,-1.3662,-1.3667,0,0,0,0,0,0,-1.3458,-1.347,-1.3465,-1.3497,-1.3509,-1.352,-1.3537,-1.3532,-1.3548,-1.3545,-1.3545,-1.3548,-1.3578,-1.3585,-1.3568,-1.362,-1.3604,-1.3608,-1.3614,-1.3619,-1.3623,-1.3621,-1.3553,0,0,0,0,0,-1.3466,-1.3484,-1.3493,-1.352,-1.3526,-1.3531,-1.3541,-1.354,-1.3552,-1.3557,-1.3565,-1.3578,-1.3596,-1.3608,-1.3626,-1.366,-1.3663,-1.3675,-1.3679,-1.3683,-1.3686,-1.3704,-1.371,-1.3651,-1.3651,-1.365,0,0,-1.3481,-1.349,-1.3501,-1.3524,-1.3533,-1.3552,-1.3535,-1.3556,-1.357,-1.3561,-1.3588,-1.3594,-1.3608,-1.364,-1.3654,-1.3646,-1.3703,-1.3686,-1.3689,-1.369,-1.3707,-1.3713,-1.3718,-1.3652,-1.3652,-1.3652,0,0,-1.3519,-1.3528,-1.3551,-1.356,-1.3574,-1.3576,-1.3582,-1.3594,-1.3598,-1.3625,-1.3618,-1.3635,-1.3667,-1.3677,-1.3686,-1.3728,-1.3722,-1.3734,-1.3755,-1.3772,-1.3777,-1.3781,-1.3795,-1.3801,-1.3737,-1.3737,-1.3737,0,-1.3537,-1.3565,-1.3564,-1.3585,-1.3595,-1.3587,-1.3611,-1.362,-1.3639,-1.3646,-1.3637,-1.3676,-1.3685,-1.3718,-1.3728,-1.3737,-1.3743,-1.3732,-1.3776,-1.3781,-1.3784,-1.3798,-1.3803,-1.3739,-1.3738,-1.3738,-1.3738,0,-1.3586,-1.3605,-1.3623,-1.364,-1.3652,-1.3674,-1.3677,-1.369,-1.3687,-1.3691,-1.3719,-1.373,-1.3749,-1.3757,-1.3755,-1.379,-1.3785,-1.3776,-1.376,-1.3791,-1.3804,-1.3809,-1.374,-1.374,-1.374,-1.3739,0,0,-1.3636,-1.3652,-1.3658,-1.3665,-1.3679,-1.3695,-1.3717,-1.3735,-1.3745,-1.3759,-1.3777,-1.3804,-1.3796,-1.3807,-1.3806,-1.3822,-1.3853,-1.3811,-1.3812,-1.3818,-1.3892,-1.3897,-1.3903,-1.385,-1.3851,-1.3852,-1.389,0,-1.3674,-1.3712,-1.3711,-1.3746,-1.3764,-1.3757,-1.3776,-1.3787,-1.3791,-1.3807,-1.3812,-1.3831,-1.3819,-1.3825,-1.384,-1.3846,-1.3868,-1.3844,-1.3867,-1.3868,-1.3863,-1.391,-1.3917,-1.3952,-1.3895,-1.3896,-1.3897,0,-1.3724,-1.3738,-1.3774,-1.3785,-1.3793,-1.381,-1.3826,-1.3841,-1.3854,-1.3856,-1.3867,-1.3865,-1.3887,-1.3871,-1.3902,-1.3885,-1.3895,-1.3899,-1.3901,-1.3903,-1.3884,-1.3913,-1.3964,-1.3969,-1.3905,-1.3904,-1.3904,0,-1.3756,-1.3784,-1.3809,-1.3816,-1.3829,-1.3841,-1.3848,-1.3859,-1.387,-1.3884,-1.3891,-1.3908,-1.3918,-1.3931,-1.3933,-1.3921,-1.3965,-1.3949,-1.3967,-1.3967,-1.3976,-1.3975,-1.4029,-1.3983,-1.3983,-1.3983,-1.3983,0,-1.3798,-1.3821,-1.3823,-1.3839,-1.3864,-1.3863,-1.3888,-1.3894,-1.3904,-1.392,-1.3916,-1.3931,-1.3933,-1.395,-1.3952,-1.3977,-1.3982,-1.3984,-1.3984,-1.3984,-1.3984,-1.399,-1.3987,-1.3985,-1.3984,-1.3984,-1.3984,0,-1.3838,-1.384,-1.3867,-1.3877,-1.388,-1.3898,-1.3908,-1.3923,-1.3926,-1.3947,-1.3952,-1.3958,-1.3977,-1.3981,-1.4004,-1.4005,-1.4035,-1.4033,-1.403,-1.403,-1.4048,-1.4046,-1.4107,-1.4115,-1.4065,-1.4065,-1.4066,0,-1.3864,-1.3881,-1.3893,-1.3903,-1.391,-1.3927,-1.3938,-1.3938,-1.3949,-1.3965,-1.3978,-1.3996,-1.4011,-1.4042,-1.4049,-1.4066,-1.4064,-1.4084,-1.4067,-1.4066,-1.4064,-1.4062,-1.4064,-1.4088,-1.4088,-1.4089,-1.4089,0,-1.3911,-1.3911,-1.3926,-1.3942,-1.3954,-1.3967,-1.3978,-1.3987,-1.3989,-1.4003,-1.4021,-1.4033,-1.4056,-1.4074,-1.4092,-1.4099,-1.4094,-1.4094,-1.41,-1.4099,-1.4097,-1.4098,-1.4039,-1.4093,-1.4093,-1.4092,-1.4092,-1.4092,-1.3945,-1.3959,-1.3969,-1.3986,-1.3995,-1.4006,-1.402,-1.4025,-1.4041,-1.4059,-1.4058,-1.4079,-1.4091,-1.4114,-1.4122,-1.4138,-1.4132,-1.414,-1.4141,-1.4143,-1.4144,-1.4095,-1.4142,-1.4142,-1.4142,-1.4141,-1.4141,0,-1.3991,-1.3997,-1.4012,-1.4028,-1.4042,-1.4036,-1.4048,-1.406,-1.4078,-1.4089,-1.4103,-1.4125,-1.4143,-1.4151,-1.4168,-1.418,-1.4178,-1.4185,-1.4183,-1.4185,-1.4149,-1.4143,-1.4185,-1.4185,-1.4185,-1.4185,-1.4185,-1.4185,-1.4016,-1.404,-1.4042,-1.407,-1.4076,-1.4095,-1.4103,-1.4113,-1.4122,-1.4146,-1.416,-1.4165,-1.4175,-1.4193,-1.4209,-1.4211,-1.4218,-1.4225,-1.4226,-1.4192,-1.4188,-1.4183,-1.4177,-1.4226,-1.4226,-1.426,-1.426,-1.426]},{"header":{"parameterUnit":"m.s-1","parameterCategory":1,"la1":30.2991,"la2":30.254,"lo1":-89.0895,"lo2":-89.0444,"dy":0.0017,"dx":0.0017,"nx":28,"ny":28,"refTime":"2024-02-22T03:00:00:Z","depth":0,"parameterNumber":3,"parameterNumberName":"V-component_of_WINDS"},"data":[0,0,0,0,0,0,0,0,0,0,0,0,0,0,0,0,0,0,0,0,0,0,0,0,0,0,0,0,0,0,0,0,0,0,0,0,0,0,0,0,0,0,0,0,0,0,0,0,0,0,0,0,0,0,0,0,0,0,3.2946,3.2946,0,3.295,3.295,3.295,3.2928,3.2928,3.2927,3.2927,3.2931,3.2931,3.2932,0,0,0,0,0,0,0,0,0,0,0,0,0,3.292,3.2921,3.2946,3.2946,3.2946,3.295,3.295,3.295,3.2929,3.2928,3.2927,3.2926,3.293,3.2931,3.2932,0,0,0,0,0,0,0,0,0,0,0,0,0,3.2928,3.2921,3.2946,3.2936,3.2935,3.295,3.295,3.295,3.2929,3.2928,3.2927,3.2926,3.293,3.2931,3.2932,3.2957,0,0,3.2935,3.2936,0,0,0,0,0,0,0,0,3.2928,3.2929,3.2937,3.2937,3.2936,3.2938,3.2942,3.2953,3.2929,3.2931,3.2927,3.2926,3.2934,3.2935,3.2937,3.2958,3.2958,3.2935,3.2936,3.2937,3.2937,0,0,0,0,0,0,0,3.2927,3.2929,3.2948,3.2938,3.2937,3.2931,3.2931,3.2944,3.2938,3.2931,3.2929,3.293,3.2933,3.2936,3.2937,3.2958,3.2935,3.2936,3.2937,3.2937,3.3,3.3001,0,0,0,0,0,0,3.2928,3.2929,3.2948,3.2948,3.2929,3.2932,3.2933,3.2938,3.2938,3.2937,3.2931,3.2929,3.2935,3.2936,3.2937,3.2968,3.2937,3.2937,3.2938,3.2999,3.3,3.3001,0,0,0,0,0,0,3.2928,3.293,3.2948,3.2938,3.294,3.2934,3.294,3.2939,3.2942,3.2938,3.2936,3.2935,3.2934,3.2936,3.2953,3.2967,3.2938,3.2939,3.2998,3.2999,3.3001,3.3028,0,0,0,0,0,0,3.2927,3.293,3.2939,3.2938,3.294,3.2963,3.2941,3.2939,3.2944,3.2941,3.2941,3.294,3.2934,3.2951,3.2954,3.2968,3.294,3.2996,3.2998,3.3,3.3026,3.303,3.3034,0,0,0,0,0,3.2926,3.2947,3.294,3.2942,3.2952,3.2964,3.2965,3.2957,3.2945,3.2955,3.2952,3.294,3.2965,3.2953,3.2956,3.2971,3.2995,3.2998,3.3,3.3024,3.3029,3.3034,0,0,0,0,0,0,3.295,3.2946,3.2939,3.296,3.2962,3.296,3.2972,3.2963,3.2969,3.2966,3.2956,3.2956,3.2975,3.2974,3.2961,3.2996,3.2978,3.2981,3.2995,3.3001,3.3005,3.3005,3.2941,0,0,0,0,0,3.2957,3.2967,3.2964,3.2982,3.2984,3.2978,3.2983,3.2976,3.2978,3.2979,3.2978,3.298,3.2989,3.2994,3.3002,3.3025,3.3025,3.3037,3.3041,3.3044,3.3047,3.306,3.3066,3.3009,3.3009,3.3009,0,0,3.2973,3.2972,3.2979,3.2987,3.2988,3.2999,3.2979,3.2991,3.2999,3.2981,3.2997,3.2996,3.2998,3.3019,3.3028,3.3019,3.3063,3.3047,3.305,3.3051,3.3063,3.3069,3.3074,3.3011,3.301,3.301,0,0,3.3007,3.3007,3.3023,3.3025,3.3027,3.3023,3.3027,3.3027,3.3025,3.3041,3.3029,3.3038,3.3052,3.3055,3.3058,3.3094,3.3084,3.3096,3.3118,3.3131,3.3136,3.314,3.3153,3.3158,3.3099,3.3099,3.3099,0,3.3027,3.3042,3.3033,3.3046,3.305,3.3035,3.3051,3.3053,3.3058,3.3061,3.3051,3.3069,3.307,3.3091,3.31,3.3103,3.3107,3.3097,3.3136,3.314,3.3143,3.3156,3.3161,3.3101,3.3101,3.31,3.31,0,3.3066,3.3077,3.309,3.3095,3.31,3.3115,3.3108,3.3115,3.3108,3.3105,3.3122,3.3122,3.3129,3.3134,3.3127,3.3154,3.3149,3.3138,3.312,3.315,3.3162,3.3167,3.3103,3.3102,3.3102,3.3102,0,0,3.3115,3.3116,3.3121,3.3123,3.3124,3.3133,3.3147,3.3154,3.3161,3.3164,3.3176,3.3189,3.3179,3.3182,3.3176,3.3187,3.3217,3.3174,3.3174,3.3183,3.3248,3.3257,3.3263,3.321,3.3211,3.3211,3.3248,0,3.315,3.3174,3.3166,3.3191,3.3202,3.3187,3.32,3.3202,3.32,3.3208,3.3205,3.3215,3.32,3.3203,3.3213,3.3211,3.323,3.3208,3.3221,3.3222,3.3222,3.3269,3.3278,3.3313,3.3252,3.3253,3.3254,0,3.3193,3.3199,3.3225,3.3225,3.3229,3.3241,3.3247,3.3255,3.3258,3.3255,3.326,3.3251,3.3265,3.3247,3.3267,3.3253,3.3257,3.3257,3.3258,3.326,3.324,3.3272,3.3323,3.3329,3.3261,3.326,3.326,0,3.3228,3.3242,3.3259,3.3262,3.3262,3.3271,3.3271,3.3273,3.3278,3.3284,3.3287,3.3295,3.3299,3.3305,3.3298,3.3286,3.3319,3.3301,3.3318,3.3318,3.3326,3.3326,3.338,3.3328,3.3328,3.3328,3.3328,0,3.3267,3.3284,3.3275,3.3286,3.3304,3.3295,3.3314,3.3313,3.3314,3.3325,3.3313,3.3323,3.3313,3.3323,3.3318,3.3335,3.3337,3.3336,3.3334,3.3337,3.3338,3.3341,3.3339,3.333,3.3329,3.3329,3.3329,0,3.3309,3.3304,3.3322,3.3322,3.3322,3.3335,3.3335,3.3345,3.3342,3.3355,3.3358,3.3353,3.3363,3.3357,3.3368,3.3365,3.3388,3.3383,3.3387,3.3386,3.3404,3.3403,3.3463,3.347,3.3413,3.3414,3.3414,0,3.3336,3.3348,3.3349,3.3355,3.3357,3.3367,3.3372,3.3364,3.337,3.3374,3.3384,3.3393,3.3401,3.3418,3.3416,3.3424,3.342,3.344,3.3421,3.3424,3.3421,3.3421,3.3422,3.3444,3.3445,3.3445,3.3446,0,3.3383,3.338,3.3388,3.3396,3.3403,3.3408,3.3412,3.3418,3.341,3.3418,3.3428,3.3434,3.3445,3.3455,3.3462,3.3463,3.3453,3.3452,3.3456,3.346,3.3462,3.3462,3.3399,3.345,3.345,3.345,3.3449,3.3449,3.3418,3.3429,3.3432,3.3441,3.3444,3.3448,3.3458,3.3456,3.3465,3.3474,3.3468,3.3481,3.3484,3.3492,3.3494,3.3504,3.3496,3.3503,3.3505,3.3507,3.3509,3.346,3.3505,3.3505,3.3505,3.3505,3.3505,0,3.3466,3.3467,3.3476,3.3483,3.3491,3.3481,3.3485,3.3492,3.3504,3.3507,3.3515,3.3527,3.3537,3.3535,3.3544,3.3552,3.3548,3.3555,3.3555,3.3555,3.3516,3.3511,3.3558,3.3558,3.3558,3.3558,3.3558,3.3558,3.3492,3.351,3.3507,3.3526,3.3527,3.3539,3.3543,3.3547,3.355,3.3565,3.3573,3.3571,3.3573,3.3581,3.359,3.3589,3.3593,3.3602,3.36,3.3563,3.3558,3.3553,3.3549,3.3603,3.3603,3.3639,3.3639,3.3639]}]]